Location: Kawakawa
(35.3830°S, 174.0670°E)
Time: 05:43:20
(UTC+13:00)

A-11 Canister half - Pass Details

Date: 15 December 2019
Orbit: 1525 x 1684 km, 47.3° (Epoch: 19 January)

Event Time Altitude Azimuth Distance (km) Brightness Sun altitude
Rises 21:21:49 0° 251° (WSW) 4,695 13.2 -8.9°
Reaches altitude 10° 21:25:10 10° 243° (WSW) 3,709 12.6 -9.4°
Maximum altitude 21:33:50 40° 175° (S) 2,127 10.1 -10.8°
Drops below altitude 10° 21:42:36 10° 107° (ESE) 3,751 10.7 -12.2°
Sets 21:46:00 0° 99° (E) 4,751 11.2 -12.7°
